SCP
0 0 0 0 0 0 0 0 0 0 0 0 0 0 0 0 0 0 0 0 0 0 0 0 0 0 0 0 0 0 0 0 0 0 0 0 0 0 0 0 0 0 0
0 0 0 0 0 0 0 0 0 0 0 0 0 0 0 0 0 0 0 0 0 0 0 0 0 0 0 0 0 0 0 0 0 0 0 0 0 0 0 0 0 0 0
0 0 0 0 0 0 0 0 0 0 0 0 0 0 0 0 0 0 0 0 0 0 0 0 0 0 0 0 0 0 0 0 0 0 0 0 0 0 0 0 0 0 0
0 0 0 0 0 0 0 0 0 0 0 0 0 0 0 0 0 0 0 0 0 0 0 0 0 0 0 0 0 0 0 0 0 0 0 0 0 0 0 0 0 0 0
0 0 0 1 0 0 0 0 0 0 0 0 0 0 0 0 0 0 0 0 0 0 0 0 0 0 0 0 0 0 0 0 0 0 0 0 0 0 0 0 0 0 0
0 0 1 1 1 0 0 0 0 0 0 0 0 0 0 0 0 0 0 0 0 0 0 0 0 0 0 0 0 0 0 0 0 0 0 0 0 0 0 0 0 0 0
0 0 0 1 1 1 1 1 0 0 0 0 0 0 0 0 0 0 0 0 0 0 0 0 0 0 0 0 0 0 0 0 0 0 0 0 0 0 0 0 0 0 0
0 0 0 1 1 1 1 1 1 0 0 0 0 0 0 0 0 0 0 0 0 0 0 0 0 0 0 0 0 0 0 0 0 0 0 0 0 0 0 0 0 0 0
0 0 0 1 1 0 1 1 1 0 0 0 0 0 0 0 0 0 0 0 0 0 0 0 0 0 0 0 0 0 0 0 0 0 0 0 0 0 0 0 0 0 0
0 0 0 1 1 1 0 0 0 0 0 0 0 0 0 0 0 0 0 0 0 0 0 0 0 0 0 0 0 0 0 0 0 0 0 0 0 0 0 0 0 0 0
0 0 0 1 1 1 0 0 0 0 0 0 0 0 0 0 0 0 0 0 0 0 0 0 0 0 0 0 0 0 0 0 0 0 0 0 0 0 0 0 0 0 0
0 0 0 0 1 1 0 0 0 0 0 0 0 0 0 0 0 0 0 0 0 0 0 0 0 0 0 0 0 0 0 0 0 0 0 0 0 0 0 0 0 0 0
0 0 0 0 1 1 0 0 0 0 0 0 0 0 0 0 0 0 0 0 0 0 0 0 0 0 0 0 0 0 0 0 0 0 0 0 0 0 0 0 0 0 0
0 0 0 0 0 0 0 0 0 0 0 0 0 0 0 0 0 0 0 0 0 0 0 0 0 0 0 0 0 0 0 0 0 0 0 0 0 0 0 0 0 0 0
0 0 0 0 0 0 0 0 0 0 0 0 0 0 0 0 0 0 0 0 0 0 0 0 0 0 0 0 0 0 0 0 0 0 0 0 0 0 0 0 0 0 0
0 0 0 0 0 0 0 0 0 0 0 0 0 0 0 0 0 0 0 0 0 0 0 0 0 0 0 0 0 0 0 0 0 0 0 0 0 0 0 0 0 0 0
0 0 0 0 0 0 0 0 0 0 0 0 0 0 0 0 0 0 0 0 0 0 0 0 0 0 0 0 0 0 0 0 0 0 0 0 0 0 0 0 0 0 0
0 0 0 0 0 0 0 0 0 0 0 0 0 0 0 0 0 0 0 0 0 0 0 0 0 0 0 0 0 0 0 0 0 0 0 0 0 0 0 0 0 0 0
0 0 0 0 0 0 0 0 0 0 0 0 0 0 0 0 0 0 0 0 0 0 0 0 0 0 0 0 0 0 0 0 0 0 0 0 0 0 0 0 0 0 0
0 0 0 0 0 0 0 0 0 0 0 0 0 0 0 0 0 0 0 0 0 0 0 0 0 0 0 0 0 0 0 0 0 0 0 0 0 0 0 0 0 0 0
0 0 0 0 0 0 0 0 0 0 0 0 0 0 0 0 0 0 0 0 0 0 0 0 0 0 0 0 0 0 0 0 0 0 0 0 0 0 0 0 0 0 0
0 0 0 0 0 0 0 0 0 0 0 0 0 0 0 0 0 0 0 0 0 0 0 0 0 0 0 0 0 0 0 0 0 0 0 0 0 0 0 0 0 0 0
0 0 0 0 0 0 0 0 0 0 0 0 0 0 0 0 0 0 0 0 0 0 0 0 0 0 0 0 0 0 0 0 0 0 0 0 0 0 0 0 0 0 0
0 0 0 0 0 0 0 0 0 0 0 0 0 0 0 0 0 0 0 0 0 0 0 0 0 0 0 0 0 0 0 0 0 0 0 0 0 0 0 0 0 0 0
0 0 0 0 0 0 0 0 0 0 0 0 0 0 0 0 0 0 0 0 0 0 0 0 0 0 0 0 0 0 0 0 0 0 0 0 0 0 0 0 0 0 0
0 0 0 0 0 0 0 0 0 0 0 0 0 0 0 0 0 0 0 0 0 0 0 0 0 0 0 0 0 0 0 0 0 0 0 0 0 0 0 0 0 0 0
Wind_Speed
2 2 4 6 7 8 8 8 9 9 9 9 10 10 10 10 10 10 10 11 10 10 11 11 12 12 13 14 14 14 15 15 15 15 14 14 15 16 16 16 14 10 17
3 3 5 6 8 8 8 9 9 9 9 9 9 10 10 9 10 10 10 10 10 10 11 12 12 13 13 14 14 14 15 15 15 14 13 12 13 15 16 15 14 11 17
3 3 4 7 8 8 9 9 9 9 9 9 9 9 9 9 10 10 10 10 10 11 11 11 12 13 14 14 14 14 14 14 14 14 12 6 8 14 15 15 15 16 16
3 3 3 7 9 8 8 8 9 9 9 8 8 8 9 9 10 10 10 10 10 11 11 12 12 13 13 14 14 14 14 14 14 12 7 5 6 13 15 15 15 15 15
3 3 4 8 9 9 8 8 8 8 8 8 8 8 8 9 9 10 9 9 10 10 11 12 12 12 13 13 13 14 14 14 13 10 6 5 5 12 14 15 15 15 15
3 2 3 8 9 9 9 8 7 8 8 8 8 8 8 8 9 10 9 9 10 10 11 11 12 12 12 13 13 13 14 13 10 6 6 5 5 12 14 14 14 14 15
3 3 3 7 8 8 8 8 7 7 7 7 8 8 8 8 9 10 10 10 10 11 11 11 11 12 12 12 13 13 13 12 8 6 6 5 7 14 14 14 14 14 15
4 3 3 5 7 8 8 8 7 7 8 7 7 8 8 8 9 10 10 9 10 10 10 10 11 12 12 12 13 13 12 11 8 6 5 5 11 14 14 14 14 14 15
4 4 3 3 4 6 7 7 7 7 8 8 8 8 8 8 9 9 9 10 10 10 10 10 11 12 12 12 13 13 13 12 6 4 5 5 12 15 15 15 14 14 15
4 4 4 4 4 4 3 6 7 7 8 9 9 8 8 8 8 9 9 10 10 11 11 11 12 12 12 13 13 13 13 9 5 5 3 6 13 14 15 15 15 14 14
3 3 3 3 3 3 3 5 6 7 8 8 7 9 7 4 5 5 8 10 11 11 11 12 12 13 12 12 13 13 10 4 4 4 3 9 13 14 14 15 15 14 14
1 1 2 2 2 3 3 3 3 4 4 5 4 5 4 4 5 6 9 10 11 11 11 12 13 12 9 6 8 9 4 5 5 4 4 11 12 13 13 14 14 14 14
0 0 1 2 2 2 2 2 2 2 3 4 4 4 4 4 4 4 3 5 6 8 6 7 7 5 5 5 5 5 5 5 4 3 5 10 11 12 12 12 13 13 13
1 1 1 1 2 2 2 2 2 2 2 2 3 4 3 3 3 3 3 3 3 3 4 4 4 5 6 6 6 6 6 4 4 3 5 10 10 11 11 11 12 12 12
1 1 1 1 2 2 2 2 2 2 2 2 2 2 3 3 3 3 3 3 3 3 4 4 4 5 6 6 6 7 6 6 6 5 4 10 10 10 10 11 11 11 12
2 1 1 1 1 2 2 2 2 2 2 2 2 2 3 3 4 3 3 3 3 3 4 4 5 5 5 5 6 6 6 5 6 5 5 6 10 10 9 10 10 11 11
2 2 0 0 1 2 2 2 2 2 3 2 2 3 3 3 4 4 4 3 3 3 5 5 5 4 5 5 6 6 5 5 5 5 5 4 5 9 9 9 9 9 10
2 2 1 0 1 2 2 2 2 2 2 2 2 3 3 3 4 3 4 3 3 3 4 5 4 5 4 4 4 4 4 4 5 5 5 5 4 4 6 9 9 8 8
3 2 1 0 1 2 2 2 2 2 2 2 2 3 2 3 4 3 3 3 4 4 3 4 4 4 4 4 4 4 4 4 4 4 5 5 4 4 4 7 9 8 7
1 2 2 1 1 2 2 2 2 2 2 2 2 2 3 3 4 3 3 4 4 4 4 4 5 4 4 4 5 4 4 3 3 3 3 3 3 4 4 4 4 5 8
1 1 2 2 1 2 2 2 3 2 1 1 1 2 3 4 4 3 3 4 4 4 4 5 5 5 3 3 4 3 3 3 3 2 2 2 3 3 3 3 2 2 3
2 2 2 2 2 3 2 2 2 2 2 1 1 1 2 3 4 3 4 3 4 4 5 5 5 4 2 1 3 3 1 1 2 2 2 2 2 2 2 2 2 2 2
2 2 3 3 2 2 2 2 2 2 2 1 1 1 1 2 4 3 4 4 3 4 5 5 5 5 4 1 1 3 4 3 0 1 1 1 1 1 1 1 1 1 1
2 2 2 3 2 2 3 3 4 3 2 2 1 1 1 2 3 3 4 4 4 3 4 5 4 4 5 4 1 1 1 3 3 1 1 1 1 1 1 1 1 0 0
2 2 2 2 2 2 3 3 4 3 1 1 1 2 2 1 2 3 3 4 4 3 4 4 4 4 4 4 3 2 2 1 1 3 2 1 1 1 1 1 1 1 0
1 0 0 1 2 2 3 3 4 4 3 3 2 2 2 1 1 2 2 3 4 3 4 4 4 5 4 4 3 3 3 3 2 2 2 2 2 2 2 2 2 1 1
Wind_Direction
226 243 196 143 137 130 126 122 118 115 110 109 109 108 106 106 104 99 94 91 91 93 93 92 92 91 88 87 84 82 80 79 80 80 78 81 84 85 83 79 76 74 78
177 191 168 142 138 131 126 123 119 117 113 111 110 107 107 107 107 102 98 93 93 92 92 93 93 91 90 87 84 82 80 78 76 74 72 75 81 85 84 82 81 81 80
138 154 150 137 135 132 127 125 121 119 117 114 112 109 109 108 107 104 101 98 96 93 91 92 94 94 91 89 86 84 82 80 76 70 65 63 79 86 86 84 83 83 83
131 129 137 132 127 127 127 125 125 121 119 117 115 114 113 111 110 107 103 100 98 97 96 95 94 94 92 90 88 85 83 80 73 67 59 56 72 87 86 85 84 83 84
112 111 136 127 126 123 122 125 126 125 121 118 115 114 113 112 112 109 106 102 100 100 98 97 96 93 91 92 90 88 85 79 71 62 56 55 66 87 88 86 85 84 83
93 90 128 125 124 123 121 118 119 126 125 121 117 112 111 112 114 112 107 102 101 101 100 99 97 95 93 92 91 89 86 79 67 58 56 58 69 86 88 87 86 84 84
88 70 105 121 121 120 119 116 116 118 121 123 120 114 110 108 113 111 105 102 103 103 99 100 99 97 96 95 92 90 86 79 70 60 57 61 77 86 86 86 85 84 84
88 70 77 113 117 117 117 115 115 115 118 113 114 112 109 107 108 107 105 104 102 100 101 103 101 98 97 97 94 88 84 80 71 63 60 65 83 86 86 84 83 82 82
77 72 57 71 93 108 110 108 110 110 110 106 102 102 102 102 105 105 104 103 99 98 99 102 101 99 97 98 94 88 81 74 67 61 64 69 84 87 86 85 83 83 84
72 72 65 57 66 71 87 99 99 100 101 100 94 87 85 85 91 94 94 95 94 94 94 98 99 96 95 96 91 85 77 67 61 58 58 78 84 86 86 85 84 83 84
55 58 67 66 62 72 79 88 88 92 94 90 84 80 72 69 71 72 84 88 89 89 90 93 97 94 90 89 88 81 71 57 55 52 60 83 86 87 85 83 82 83 83
44 36 69 80 72 75 84 82 76 76 81 79 78 75 67 69 72 72 72 80 82 81 81 85 87 85 80 75 76 72 63 55 52 43 64 83 88 89 87 85 83 81 82
175 20 93 96 86 88 94 94 85 85 85 84 88 85 82 78 76 72 70 67 70 71 69 72 72 69 73 76 75 69 62 57 47 39 55 75 85 90 91 88 86 85 83
105 9 51 93 98 98 99 103 102 101 100 99 98 100 98 95 86 82 79 74 73 75 78 69 74 75 76 76 78 77 66 59 48 38 49 66 80 88 92 91 89 86 85
164 348 325 113 103 116 120 120 108 108 113 113 108 100 106 110 104 99 89 84 79 80 86 83 78 79 79 76 75 77 73 64 57 48 40 52 68 81 88 91 90 87 84
200 221 320 137 117 120 130 132 129 122 118 109 111 108 107 116 115 109 100 92 89 89 90 91 87 86 81 80 74 70 68 63 57 54 47 41 48 62 80 89 90 88 85
201 204 199 198 134 129 132 137 134 133 128 119 114 105 98 109 118 119 114 104 96 97 99 98 91 84 84 80 72 65 63 58 56 51 47 41 35 43 60 79 86 86 86
188 190 188 217 155 143 139 139 137 139 138 132 123 112 107 108 109 117 123 121 113 106 107 108 103 94 81 79 75 61 57 55 54 52 49 42 37 33 40 59 68 75 83
184 178 184 308 173 160 144 137 137 139 143 140 128 122 119 118 110 112 124 124 121 110 107 113 104 107 104 91 80 64 51 49 47 53 52 44 41 39 35 44 48 55 65
164 168 175 209 185 162 139 124 118 116 124 130 129 132 132 126 115 110 121 127 125 120 115 114 114 100 107 109 89 67 48 41 45 46 46 43 41 43 42 43 38 38 48
120 142 184 196 194 164 145 153 153 164 160 131 136 143 143 135 128 122 124 134 134 134 137 131 123 115 108 120 101 75 41 44 50 39 32 45 42 36 43 46 45 40 34
195 196 200 224 208 192 171 163 156 150 151 136 123 124 144 143 141 138 140 147 147 137 136 138 134 128 125 138 127 123 96 15 19 29 27 44 35 29 40 43 55 52 43
218 219 219 226 220 202 155 131 109 100 98 103 111 151 153 157 152 143 154 151 154 156 159 160 155 146 153 162 107 147 154 191 244 347 359 17 12 35 16 14 62 63 54
234 237 229 218 210 193 157 150 148 152 163 188 192 193 180 162 159 156 160 160 162 166 171 173 167 158 154 165 147 50 100 147 155 188 311 328 346 359 328 341 359 5 86
240 229 224 217 197 183 172 171 163 161 161 132 147 169 169 155 167 162 167 169 168 172 178 179 172 172 169 169 166 151 112 70 112 154 214 274 310 281 265 265 257 244 257
259 209 209 210 203 194 176 175 174 175 164 156 174 188 189 176 169 178 180 179 176 175 183 189 188 183 182 174 165 164 163 164 179 165 180 212 239 267 265 254 240 233 232